Regional Weather Roundup
Issued by NWS

Home | Current Version | Previous Version | Graphics & Text | Print | Product List | Glossary On
Versions: 1 2 3 4 5 6 7 8 9 10 11 12 13 14 15 16 17 18 19 20 21 22 23 24 25 26 27 28 29 30 31 32 33 34 35 36 37 38 39 40 41 42 43 44 45 46 47 48 49 50
000
ASUS45 KBOI 051910
RWRID

IDAHO REGIONAL WEATHER ROUNDUP
NATIONAL WEATHER SERVICE BOISE ID
1200 PM MST FRI FEB 05 2016

NOTE: "FAIR" INDICATES FEW OR NO CLOUDS BELOW 12000 FEET
WITH NO SIGNIFICANT WEATHER AND/OR OBSTRUCTIONS TO VISIBILITY

IDZ012-014-052000-
SOUTHWEST IDAHO


CITY           SKY/WX    TMP DP  RH WIND       PRES   REMARKS
BOISE          MOSUNNY   36  34  93 CALM      30.54F FOG
CALDWELL       FOG       31  30  96 NE3       30.57F VSB<1/4
MOUNTAIN HOME  MOSUNNY   37  37 100 E12       30.55S WCI  29
$$

IDZ016-017-052000-
SOUTHCENTRAL IDAHO


CITY           SKY/WX    TMP DP  RH WIND       PRES   REMARKS
BURLEY         CLOUDY    33  26  75 NE6       30.51F WCI  28
JEROME         CLOUDY    27  23  85 N17       30.53F FOG     WCI  14
TWIN FALLS     SUNNY     39  27  62 SW5       30.52F
$$

IDZ019>023-052000-
SOUTHEAST IDAHO


CITY           SKY/WX    TMP DP  RH WIND       PRES   REMARKS
IDAHO FALLS    CLOUDY    18  15  88 N8        30.55F FOG     WCI   8
POCATELLO      CLOUDY    23  19  85 NE6       30.55F WCI  16
REXBURG        CLOUDY    19  17  92 N5        30.54S FOG     WCI  12
$$

IDZ006-010-011-018-031-032-052000-
CENTRAL IDAHO MOUNTAINS


CITY           SKY/WX    TMP DP  RH WIND       PRES   REMARKS
MCCALL         CLOUDY    27  25  92 S3        30.46S
HAILEY           N/A     27  16  63 W3        30.50S
STANLEY          N/A     27  16  63 CALM      30.46F
SALMON         CLOUDY    21  18  86 CALM      30.51F
CHALLIS        SUNNY     22  15  75 CALM      30.47F
$$

IDZ002-004-006-007-026-052000-
NORTHERN IDAHO


CITY           SKY/WX    TMP DP  RH WIND       PRES   REMARKS
LEWISTON       SUNNY     49  34  56 SE20G26   30.38F
LOWELL           N/A     40  35  83 CALM      30.48F
COEUR D`ALENE  MOSUNNY   43  37  81 S9        30.33F
MULLAN PASS    FOG       30  26  85 VRB3      30.29F VSB 1/4
$$



USA.gov is the U.S. government's official web portal to all federal, state and local government web resources and services.